Regional Weather Roundup
Issued by NWS

Home | Current Version | Previous Version | Graphics & Text | Print | Product List | Glossary On
Versions: 1 2 3 4 5 6 7 8 9 10 11 12 13 14 15 16 17 18 19 20 21 22 23 24 25 26 27 28 29 30 31 32 33 34 35 36 37 38 39 40 41 42 43 44 45 46 47 48 49 50
000
ASUS45 KSLC 300610
RWRUT

UTAH REGIONAL WEATHER ROUNDUP
NATIONAL WEATHER SERVICE SALT LAKE CITY UT
1200 AM MDT WED JUL 30 2014

UTZ001>011-023>025-300700-

NORTHERN UTAH

CITY           SKY/WX    TMP DP  RH WIND       PRES   REMARKS
HILL AFB       LGT RAIN  64  61  88 NW8       30.20F FOG
LOGAN          LGT RAIN  64  62  93 N6        30.21R
OGDEN          LGT RAIN  64  62  93 NW5       30.19S
PROVO AIRPORT  MOCLDY    64  57  77 SE3       30.20S
SALT LAKE CITY CLOUDY    70  61  73 NE5       30.16S
VERNAL         CLOUDY    62  58  86 N5        30.24F
WENDOVER       CLOUDY    73  55  53 CALM      30.20S
HEBER CITY     RAIN      59  57  94 E5        30.26R
WEST JORDAN    CLOUDY    70  66  88 CALM      30.20S

$$

UTZ012>022-026-027-300700-

SOUTHERN UTAH

CITY           SKY/WX    TMP DP  RH WIND       PRES   REMARKS
BRYCE CANYON   PTCLDY    56  52  86 NW8       30.37F
CEDAR CITY     CLOUDY    63  60  90 NW5       30.23S
MILFORD        PTCLDY    64  58  80 SW3       30.20S
MOAB/CYNLANDS  CLEAR     64  61  90 VRB3      30.16R
PRICE          MOCLDY    63  55  75 E8        30.25F
ST GEORGE      MOCLDY    86  54  32 N5        30.02S
KANAB            N/A     72  54  53 N6        30.21R

$$

REGIONAL REPORTS     COLORADO/ARIZONA

CITY           SKY/WX    TMP DP  RH WIND       PRES   REMARKS
CRAIG, CO      CLOUDY    55  50  83 W3        30.28S
GRAND JUNCTION CLOUDY    63  60  90 SE5       30.21S
RIFLE          LGT RAIN  60  56  86 E5        30.27S
MONTROSE       CLOUDY    63  57  81 SE6       30.29F
CORTEZ         CLEAR     62  55  77 E3        30.24F
PAGE, AZ       PTCLDY    82  52  35 CALM      30.12R
GRAND CANYON   CLEAR     59  50  72 CALM      30.31S
KINGMAN        CLEAR     81  49  32 S9        30.07R
FLAGSTAFF      PTCLDY    65  46  50 W3        30.35S

$$

REGIONAL REPORTS    NEVADA/IDAHO/WYOMING

CITY           SKY/WX    TMP DP  RH WIND       PRES   REMARKS
LAS VEGAS, NV  PTCLDY    93  52  24 SW6       29.91S HX  90
ELY            MOCLDY    56  56 100 SW3       30.32F
ELKO           CLOUDY    67  52  58 E7        30.29R
POCATELLO, ID  CLEAR     63  56  78 N10       30.21F
BURLEY         CLOUDY    66  54  65 CALM      30.20F
EVANSTON, WY   CLOUDY    56  54  93 E16       30.34S
ROCK SPRINGS   CLOUDY    56  52  86 E13       30.35S

$$


USA.gov is the U.S. government's official web portal to all federal, state and local government web resources and services.